This demonstration page uses our WeatherBlox Daily Observations layout. Learn more.

39.29038, -76.61219

Hourly Observations for October 16, 2018

Temp ( °F °C ) Dew Point ( °F °C ) Humidity (%) Winds ( mph kmh ) Pressure ( in mb ) Visibility ( mi km ) Precip ( " mm )
12:54 am 00:54 undefined 65 18.3 54 12.2 68 68 undefined N/A 30.02 1017 N/A 0 0
1:54 am 01:54 undefined 64 17.8 52 11.1 65 65 undefined N/A 30.05 1018 N/A 0 0
2:54 am 02:54 undefined 62 16.7 45 7.2 54 54 undefined N/A 30.07 1018 N/A 0 0
3:54 am 03:54 undefined 60 15.6 42 5.6 52 52 undefined N/A 30.11 1020 N/A 0 0
4:54 am 04:54 undefined 58 14.4 42 5.6 56 56 undefined N/A 30.13 1020 N/A 0 0
5:54 am 05:54 undefined 57 13.9 40 4.4 53 53 undefined N/A 30.14 1021 N/A 0 0
6:54 am 06:54 undefined 56 13.3 39 3.9 53 53 undefined N/A 30.16 1021 N/A 0 0
7:54 am 07:54 undefined 55 12.8 38 3.3 53 53 undefined N/A 30.18 1022 N/A 0 0
8:54 am 08:54 undefined 55 12.8 39 3.9 55 55 undefined N/A 30.21 1023 N/A 0 0
9:54 am 09:54 undefined 57 13.9 41 5 55 55 undefined N/A 30.24 1024 N/A 0 0
10:54 am 10:54 undefined 56 13.3 42 5.6 60 60 undefined N/A 30.23 1024 N/A 0 0
11:54 am 11:54 undefined 58 14.4 39 3.9 50 50 undefined N/A 30.25 1024 N/A 0 0
12:54 pm 12:54 undefined 59 15 39 3.9 48 48 undefined N/A 30.21 1023 N/A 0 0
1:54 pm 13:54 undefined 61 16.1 38 3.3 43 43 undefined N/A 30.18 1022 N/A 0 0
2:54 pm 14:54 undefined 61 16.1 37 2.8 41 41 undefined N/A 30.12 1020 N/A 0 0
3:54 pm 15:54 undefined 61 16.1 37 2.8 41 41 undefined N/A 30.11 1020 N/A 0 0
4:54 pm 16:54 undefined 60 15.6 35 1.7 39 39 undefined N/A 30.11 1020 N/A 0 0
5:54 pm 17:54 undefined 58 14.4 37 2.8 46 46 undefined N/A 30.1 1019 N/A 0 0
6:54 pm 18:54 undefined 58 14.4 37 2.8 46 46 undefined N/A 30.11 1020 N/A 0 0
7:54 pm 19:54 undefined 57 13.9 38 3.3 49 49 undefined N/A 30.12 1020 N/A 0 0
8:54 pm 20:54 undefined 57 13.9 41 5 55 55 undefined N/A 30.11 1020 N/A 0 0
9:54 pm 21:54 undefined 56 13.3 43 6.1 62 62 undefined N/A 30.11 1020 N/A 0 0
10:54 pm 22:54 undefined 56 13.3 44 6.7 65 65 undefined N/A 30.11 1020 N/A 0 0
11:54 pm 23:54 undefined 56 13.3 46 7.8 70 70 undefined N/A 30.1 1019 N/A 0 0

Powered by AerisWeather